Uncategorized

2002 Ratings: D1 Boys State

Adjustment: +9

GradeNameTimeTeamRating
12Chris Catton15:18.8Grand Blanc210.7
11Dustin Voss15:21.8Saline209.7
11Frank Tinney15:24.3Ann Arbor Huron208.9
11Andrew Manning15:36.4Traverse City Central204.9
11Kevin Gienapp15:37.0Brighton204.7
12Matt Wish15:45.9Rockford201.7
12Mike Hanlon15:46.7Ann Arbor Huron201.4
9Mark Moore15:47.5Novi201.2
10Neil Atzinger15:47.6Saline201.1
11Chris Welch15:48.4White Lake Lakeland200.9
11Donald Richmond15:48.7Oxford200.8
11Tim Copacia15:49.9Utica Eisenhower200.4
10Tim Kenny15:50.0TC West (Traverse City)200.3
12Chris Mehay15:51.7New Baltimore Anchor Bay199.8
11Adam Craig15:52.2White Lake Lakeland199.6
9John Black15:52.7Brother Rice199.4
10Chris Hammer15:54.3Troy Athens198.9
11Alex Wood15:55.0TC West (Traverse City)198.7
Brian Gilchrist15:55.5Novi198.5
11Mark Sitko15:55.6Clarkston198.5
11Matt Plaska15:56.5Zeeland (split to East/West)198.2
11Eric Graf15:57.5Rockford197.8
12BJ Meyers15:58.3Rockford197.6
11James Erickson15:59.6Belleville197.1
Seth Thibodean15:59.8Highland-Milford197.1
10Tim Kaijala16:00.4Muskegon Mona Shores196.9
11Matt Gillespie16:01.3Livonia Stevenson196.6
12Justin Hajduk16:03.8Salem195.7
10Kyle Harris16:05.3Highland-Milford195.2
11Alex Fritz16:06.3Temperance Bedford194.9
Sean O’Halloran16:06.8Livonia Stevenson194.7
10Chad Murray16:07.6Highland-Milford194.5
11Cam Ross16:07.8Traverse City Central194.4
10Chris Scott16:09.2TC West (Traverse City)193.9
11Brian Doot16:09.4Detroit Catholic Central193.9
11Jared Elmore16:12.3Clarkston192.9
10Dana Pitcock16:12.3Highland-Milford192.9
10David Lucas16:12.4Detroit Catholic Central192.9
12Derek Scott16:13.3GR_Northview192.6
Michael Andersen16:13.6Highland-Milford192.5
10David Brown16:13.8Port Huron Northern192.4
11Daniel Horgan16:14.9Detroit Catholic Central192.0
Lindsey LaLonde16:17.0Saginaw Heritage191.3
12Geoff Guthrie16:17.5Rockford191.2
11Abdullah Saleh16:17.9Dearborn Fordson191.0
11Eric Huffman16:18.0Swartz Creek191.0
11Tim Kava16:18.3Novi190.9
11Pat Miller16:18.5Highland-Milford190.8
10Kyle Mena16:18.6Portage Northern190.8
11Alex Grobbel16:20.1Utica Eisenhower190.3
11Kevin Coch16:20.3East Kentwood190.2
Bryan Tharp16:21.0Holland West Ottawa190.0
10Eric Joseph16:21.2Novi189.9
11Chad Anastasoff16:21.3Temperance Bedford189.9
12Adam Hostetler16:22.4Grand Blanc189.5
9Jimmy Partridge16:22.9Sterling Heights189.4
Kevin Mason16:23.0Detroit Catholic Central189.3
12Andrew Miller16:23.4Utica189.2
11Jeff Draggich16:23.6Sterling Heights189.1
10Ryan McCarl16:24.4Muskegon Mona Shores188.9
11Jason Young16:25.0Utica Eisenhower188.7
Trevor Step16:25.6Detroit Catholic Central188.5
12Chris Cavazos16:26.3Woodhaven-Brownstown188.2
10Matt Crampton16:26.8Utica Eisenhower188.1
10Thomas Cowan16:27.0Troy188.0
10Adam Koepfer16:27.8Temperance Bedford187.7
Nate Penny16:28.1Zeeland (split to East/West)187.6
Adam Aljahmi16:29.0Dearborn Fordson187.3
9Steve Czarnecki16:29.9Rochester Adams187.0
10Maxwell Working16:30.7Detroit Catholic Central186.8
10Clark Richter16:31.0Rockford186.7
10Tad Hulst16:31.0Zeeland (split to East/West)186.7
11Zach Ryan16:32.3Saline186.2
10Colin Orr16:34.6West Bloomfield185.5
Mark Jones16:34.7Saginaw Heritage185.4
11David Morgan16:35.2FHN GR_Forest Hills Northern185.3
10Dan DeRusha16:35.2Highland-Milford185.3
Marc Roualet16:35.8Brother Rice185.1
12Bobby Brouwer16:36.3FHC GR_Forest Hills Central184.9
10Richard Kettles16:36.3Grand Ledge184.9
11Stephen Cheek16:36.4Canton184.9
9Spencer Ornes16:37.0Novi184.7
10Jeff Brooks16:38.0Flushing184.3
9Marcel Franklin16:38.7Lansing Eastern184.1
12Atul Gupta16:39.6Ann Arbor Huron183.8
Nick Zendler16:39.6Flint Carman-Ainsworth183.8
10Hadi Harp16:40.4Dearborn Fordson183.5
11Grant Griffin16:40.7Grand Blanc183.4
12Matt Tidman16:41.0Pinckney183.3
Adam Darany16:41.2Detroit Catholic Central183.3
10Ryan Cooper16:41.8Portage Northern183.1
11Jim Kutches16:41.9Muskegon Mona Shores183.0
12Chris Jordan16:42.4Detroit U-D Jesuit182.9
10Justin Switzer16:42.4Waterford Kettering182.9
10Dominic Merica16:43.5Traverse City Central182.5
10Tony Araiz16:44.5Temperance Bedford182.2
12Jon Western16:44.8Canton182.1
9John Hall16:45.0TC West (Traverse City)182.0
10David Hariston16:45.5Grand Ledge181.8
11Andrew Stewart16:46.5Troy181.5
10Mike Bair16:46.6Brother Rice181.5
John Malosh16:47.3Monroe181.2
12Todd Smith16:47.6Rockford181.1
11Matt Chumbley16:47.8Rochester181.1
11Christopher Haag16:47.9Warren DeLaSalle181.0
9Harrison Beeby16:48.4Traverse City Central180.9
12Aaron Lanning16:48.7Canton180.8
10Jason Hannawa16:48.8Brother Rice180.7
10Amol Huprikar16:48.9Novi180.7
10Steven Leonard16:48.9White Lake Lakeland180.7
Aaron Kenemer16:49.4Zeeland (split to East/West)180.5
12Randy Bearden16:50.2Salem180.3
11Sean Burgoon16:50.2Temperance Bedford180.3
12Steve Gladieux16:50.7TC West (Traverse City)180.1
10Mitch Weiner16:50.8White Lake Lakeland180.1
10Luke Chrusciel16:50.9Grandville180.0
Jeff Mataya16:51.4North Farmington179.9
9Alvin Moore16:51.5Troy Athens179.8
10Adam Daoud16:52.2Ann Arbor Huron179.6
10Dan Pinter16:52.9Saline179.4
12Jon Steinhoff16:53.4Grand Blanc179.2
11David Snare16:53.7Temperance Bedford179.1
10Ryan Gregory16:53.9Brother Rice179.0
10Shane Knoll16:54.1Warren Mott179.0
11Zachary Blough-Orr16:54.6Kalamazoo Central178.8
12Kevin Dorn16:55.2Rockford178.6
10Parker Tiffany16:55.3Traverse City Central178.6
Doug Novack16:55.5Livonia Stevenson178.5
11Jason Arini16:55.8Sterling Heights178.4
12Eric Woolworth16:56.0Jackson178.3
10Austin Riker16:56.9Ann Arbor Huron178.0
Geoff Brigham16:57.9Lansing Eastern177.7
11Nikhil Kawlra16:58.2Troy177.6
9Mike Craze16:58.5Sterling Heights177.5
10Carter Bishop16:59.1Saline177.3
12Johnny McDonald16:59.1TC West (Traverse City)177.3
Matt McGraw16:59.2Lansing Eastern177.3
Sam Christian16:59.7Lansing Eastern177.1
11Mike Force17:00.3Owosso176.9
12Evan Wimberly17:01.1Ann Arbor Huron176.6
Kevin Patra17:01.8Redford Union176.4
11Jacob Laurent17:02.1Kalamazoo Central176.3
12Tom Jones17:02.7Holt176.1
Jason Day17:03.1Rochester176.0
James Munk17:03.5Lansing Eastern175.8
12Francis Reno17:03.5Temperance Bedford175.8
12Matthew Lutch17:03.7Roseville175.8
10Kassem Hammoud17:04.3Dearborn Fordson175.6
10Scott Brunning17:04.4Troy Athens175.5
10Curtis Vollmar17:05.4Grand Blanc175.2
12Andy Strasburg17:05.6Saline175.1
Matt Merian17:06.5Rochester174.8
11Andrew Visger17:07.3Grosse Pointe South174.6
10Tom Clippard17:07.4Troy Athens174.5
11Sam Klemet17:07.6Brother Rice174.5
11Chad Rogers17:08.0Holt174.3
11Jay Meyers17:08.2Muskegon Mona Shores174.3
11Christopher Vraniak17:08.9Salem174.0
11Timothy Edwards17:09.9Warren Mott173.7
12Jon Vanderberg17:10.2Muskegon Mona Shores173.6
10Richard Byler17:10.8Jackson173.4
Jon Paklaian17:10.9Troy173.4
11Adam Warner17:11.3Salem173.2
10Dan Kenny17:11.4TC West (Traverse City)173.2
11Kevin Kane17:11.7Livonia Churchill173.1
9Jake Schaner17:12.6Muskegon Mona Shores172.8
12Brandon Emperor17:13.5FHC GR_Forest Hills Central172.5
10Ryan Harper17:14.3Traverse City Central172.2
12Marcus Evans17:14.9Kalamazoo Central172.0
11Bryan Mullins17:15.0Rochester172.0
10Sam Watson17:15.4Rochester171.9
Ryan Danescu17:16.6Royal Oak Kimball (closed)171.5
12Bilal Ghalib17:17.2Ann Arbor Huron171.3
11Levi Yoder17:19.9GR_Union170.4
11Chris Lieblang17:21.0Sterling Heights170.0
Ali Ajamy17:21.2Dearborn Fordson169.9
11Kyle Scott17:22.0FHC GR_Forest Hills Central169.7
10Tom Szczesny17:22.5Detroit U-D Jesuit169.5
9Ryan Grau17:25.4Kalamazoo Central168.5
10Kenny White17:25.6Oxford168.5
10Matt Dull17:26.2FHC GR_Forest Hills Central168.3
Mike Pitcher17:27.8Novi167.7
12Erik Ness17:28.3Salem167.6
10Jason Sosnowski17:28.3White Lake Lakeland167.6
10Stefan Cross17:29.1Grosse Pointe North167.3
9Jacob Wernet17:29.3Grosse Pointe South167.2
11Steve Cullen17:30.7Fraser166.8
10Jon Maten17:32.1Detroit U-D Jesuit166.3
11David Walline17:32.2Saline166.3
11Eric Eustice17:32.5Detroit U-D Jesuit166.2
10Phil Shaheen17:32.5Troy Athens166.2
11Justin Spliedt17:33.7FHC GR_Forest Hills Central165.8
9Kirk Leonard17:36.0Detroit U-D Jesuit165.0
10Khalil Elgarmi17:36.7Dearborn Fordson164.8
10Andrew Gabris17:38.7Muskegon Mona Shores164.1
11Matthew Hays17:39.0Livonia Stevenson164.0
9Josh Lisiecki17:40.1Detroit U-D Jesuit163.6
11Anthony McManus17:41.1Traverse City Central163.3
9Jon Davis17:42.1Utica Eisenhower163.0
11Benjamin Schoener17:42.7Grand Blanc162.8
Brad Craig17:44.0White Lake Lakeland162.3
10Bryan Mackenzie17:46.6Grosse Pointe South161.5
9Tyler Evans17:47.8Kalamazoo Central161.1
12Mike Horgan17:48.3Salem160.9
10David Watson17:49.0Grosse Pointe North160.7
Matt Hoelzel17:50.8Livonia Stevenson160.1
Rob Matouk17:53.2Grosse Pointe North159.3
11Jim Grau17:56.2Detroit U-D Jesuit158.3
10Dominic Fano17:57.8Sterling Heights157.7
9Dan Welch17:58.2White Lake Lakeland157.6
Zaid Algahmi18:01.8Dearborn Fordson156.4
11James Leddy18:03.5Salem155.8
12Mlen-Too Wesley18:03.8Kalamazoo Central155.7
11Collin Hall18:05.8Livonia Stevenson155.1
Eric Backman18:06.2Grosse Pointe South154.9
Sam Filcik18:06.4Zeeland (split to East/West)154.9
Nick Plaska18:06.8Zeeland (split to East/West)154.7
12Andy Neuman18:07.0FHC GR_Forest Hills Central154.7
12Nate Brunner18:07.6FHC GR_Forest Hills Central154.5
10John Rolecki18:09.7Grand Blanc153.8
11Josh Bogus18:10.5Sterling Heights153.5
12Brad Gimbutis18:10.9Utica Eisenhower153.4
9Adam Dziuba18:13.1Grosse Pointe South152.6
11Jim Marcicki18:13.3Livonia Stevenson152.6
10Brad Linden18:20.9Rochester150.0
10Dave Secord18:24.9Grosse Pointe North148.7
Tom Bratton18:28.3Zeeland (split to East/West)147.6
9Steve Breisach18:29.1Kalamazoo Central147.3
Jeff Chen18:29.1Troy147.3
Andy Kapordelis18:35.4Grosse Pointe North145.2
Justin Tonti18:39.2Rochester143.9
Eric Barton18:39.3Grosse Pointe North143.9
Alex Kapordelis18:41.7Grosse Pointe North143.1
Nick Ferri18:42.2Troy Athens142.9
Mike Luginbill18:53.7Troy139.1
Anand Navarasala19:04.1Troy135.6
Matt Grabow19:09.1Troy Athens134.0
12Ross Martin19:16.8Utica Eisenhower131.4
Sean O’Donnell-Daudli19:20.0Grosse Pointe South130.3
Chris Kennedy19:21.5Lansing Eastern129.8
Carl Starkey19:34.4Lansing Eastern125.5
William Chu19:48.8Grosse Pointe South120.7

Leave a Reply

Fill in your details below or click an icon to log in:

WordPress.com Logo

You are commenting using your WordPress.com account. Log Out /  Change )

Twitter picture

You are commenting using your Twitter account. Log Out /  Change )

Facebook photo

You are commenting using your Facebook account. Log Out /  Change )

Connecting to %s